037 
ASUS46 KSEW 292210
RWRWA 

WASHINGTON REGIONAL WEATHER ROUNDUP
NATIONAL WEATHER SERVICE SEATTLE WA
300 PM PDT TUE JUL 29 2014

NOTE:"FAIR" INDICATES FEW OR NO CLOUDS BELOW 12,000 FEET WITH NO 
SIGNIFICANT WEATHER AND/OR OBSTRUCTIONS TO VISIBILITY.

WAZ505-507>509-292300-
SEATTLE, TACOMA, EVERETT, AND VICINITY
  
CITY           SKY/WX    TMP DP  RH WIND       PRES   REMARKS
EVERETT        SUNNY     74  55  51 N8        30.14F                  
BOEING FIELD   SUNNY     84  52  33 NW10      30.09F                  
RENTON         SUNNY     82  56  40 NW12      30.09F                  
SEATAC AIRPORT SUNNY     85  50  29 N12       30.12F                  
JBLM-MCCHORD   SUNNY     85  52  32 VRB7      30.10F                  
PUYALLUP       FAIR      84  54  34 NW3       30.11F                  
JBLM-FT LEWIS  SUNNY     85  50  29 NW6       30.09F                  
TACOMA NARROWS SUNNY     81  52  36 VRB6      30.10F                  
$$
 
WAZ001-503-506-510-514-515-292300-
NORTH INTERIOR
  
CITY           SKY/WX    TMP DP  RH WIND       PRES   REMARKS
BELLINGHAM     SUNNY     76  57  51 S6        30.10F                  
FRIDAY HARBOR  SUNNY     76  56  49 SE5       30.12F                  
EASTSOUND      SUNNY     72  57  60 CALM      30.09F                  
PORT ANGELES   SUNNY     72  55  55 NW12      30.14F                  
NAS WHIDBEY    MOSUNNY   64  54  69 W9        30.14S                  
BURLINGTON     SUNNY     81  61  50 SW9       30.12F                  
$$
 
WAZ020-022-039-040-504-511-512-292300-
SOUTHWEST INTERIOR
  
CITY           SKY/WX    TMP DP  RH WIND       PRES   REMARKS
SHELTON        SUNNY     87  53  31 VRB6      30.07F                  
OLYMPIA        SUNNY     86  49  27 N9        30.10F                  
CHEHALIS       FAIR      88  61  40 N9        30.08F                  
KELSO          SUNNY     84  61  45 W7        30.08F                  
VANCOUVER      SUNNY     87  56  34 NW13G18   30.04F                  
SCAPPOOSE, OR  SUNNY     90  54  29 NW12      30.03F                  
PORTLAND, OR   MOSUNNY   87  58  37 NW10G16   30.04F                  
$$
 
WAZ021-516-517-292300-
WASHINGTON COAST
  
CITY           SKY/WX    TMP DP  RH WIND       PRES   REMARKS
FORKS          SUNNY     73  59  61 N14       30.16F                  
HOQUIAM        FAIR      69  60  73 SW15      30.14S                  
ASTORIA, OR    SUNNY     68  59  73 NW18      30.14S                  
$$
 
WAZ019-023-024-040-518-519-292300-
CASCADE MOUNTAINS AND COLUMBIA GORGE
  
CITY           SKY/WX    TMP DP  RH WIND       PRES   REMARKS
STAMPEDE PASS  SUNNY     76  49  38 VRB7      30.23                   
TROUTDALE, OR  SUNNY     87  59  38 VRB5      30.03F                  
THE DALLES, OR SUNNY     98  53  22 N20G26    29.91F HX  96           
$$

WAZ026-027-041>044-520-521-292300-
EAST SLOPES
  
CITY           SKY/WX    TMP DP  RH WIND       PRES   REMARKS
OMAK           MOSUNNY  104  34   9 S9        29.96F HX  97           
WENATCHEE      SUNNY    102  39  11 E3        29.95F HX  97           
ELLENSBURG     SUNNY    102  49  16 MISG      30.01F HX  99           
YAKIMA         SUNNY    101  42  13 CALM      29.95F HX  96           
$$

WAZ028-034-035-292300-
COLUMBIA BASIN
  
CITY           SKY/WX    TMP DP  RH WIND       PRES   REMARKS
EPHRATA        SUNNY    102  41  12 S10       29.96F HX  97           
MOSES LAKE     MOSUNNY  100  47  16 S6        29.97F HX  96           
PASCO          SUNNY    103  57  21 N5        29.91F HX 102           
HERMISTON, OR  SUNNY    101  52  19 VRB3      29.92F HX  98           
$$

WAZ036>038-292300-
NORTHEAST WASHINGTON
  
CITY           SKY/WX    TMP DP  RH WIND       PRES   REMARKS
SPOKANE GEIGER MOSUNNY   97  40  14 VRB3      30.04F HX  92           
SPOKANE FELTS  SUNNY    100  38  11 N3        30.02F HX  95           
FAIRCHILD AFB  SUNNY     97  40  14 SE9       30.05F HX  92           
COEURDALENE,ID SUNNY     97  37  12 W3        30.01F HX  92           
DEER PARK        N/A     97  38  13 MISG      30.04F HX  92           
$$

WAZ029>033-292300-
SOUTHEAST WASHINGTON
  
CITY           SKY/WX    TMP DP  RH WIND       PRES   REMARKS
PULLMAN        SUNNY     97  36  12 W5        30.07F HX  92           
LEWISTON, ID   LGT RAIN 104  39  10 VRB6      29.95F HX  98           
WALLA WALLA    SUNNY    101  41  12 CALM      29.96F HX  96           
PENDLETON, OR  SUNNY    100  43  14 MISG      29.97F HX  96           
$$